WY1U-1 Weather Reports


time (UTC)temp
C
wind
direction
speed
KPH
gust
KPH
rain 1hr
cm
rain 24hr
cm
rain mn
cm
humidity
%
barometer
mb
20260906100150 16 0 0.0 0.0 0.00 0.51 0.03 95 1013.8
20260906093150 16 0 0.0 0.0 0.00 0.51 0.03 95 1013.5
20260906090152 16 0 0.0 0.0 0.00 0.51 0.03 95 1013.2
20260906083150 16 0 0.0 0.0 0.00 0.51 0.03 95 1013.4
20260906080151 16 0 0.0 0.0 0.00 0.51 0.03 95 1013.2
20260906070151 17 23 0.0 3.2 0.00 0.51 0.03 95 1013.2
20260906060150 18 0 0.0 0.0 0.03 0.51 0.03 95 1013.3
20260906053150 18 0 0.0 0.0 0.03 0.51 0.03 95 1013.2
20260906050150 18 0 0.0 0.0 0.00 0.46 0.00 95 1013.3
20260906040150 18 0 0.0 0.0 0.00 0.46 0.00 94 1013.0
20260906033150 18 63 0.0 6.4 0.00 0.46 0.46 94 1012.9
20260906030150 19 0 0.0 0.0 0.00 0.46 0.46 94 1012.8
20260906020151 19 0 0.0 0.0 0.10 0.46 0.46 92 1012.6
20260906010151 20 0 0.0 0.0 0.30 0.30 0.30 86 1012.2
20260906000152 21 101 0.0 3.2 0.00 0.00 0.00 77 1011.4
20260905230151 22 0 0.0 0.0 0.00 0.00 0.00 70 1010.9
20260905220153 23 0 0.0 0.0 0.00 0.00 0.00 67 1010.7
20260905210151 23 0 0.0 0.0 0.00 0.00 0.00 64 1010.0
20260905200151 25 285 0.0 4.8 0.00 0.00 0.00 62 1009.7
20260905190151 25 290 3.2 8.0 0.00 0.00 0.00 61 1009.9
20260905180151 25 12 3.2 8.0 0.00 0.00 0.00 59 1010.2
20260905170151 25 8 1.6 8.0 0.00 0.00 0.00 56 1010.1
20260905160151 24 28 4.8 11.3 0.00 0.00 0.00 61 1010.1
20260905150151 24 28 3.2 9.7 0.00 0.00 0.00 61 1010.3
20260905130151 20 333 1.6 3.2 0.00 0.00 0.00 79 1010.7
20260905120151 18 0 0.0 0.0 0.00 0.00 0.00 85 1010.7